Home > Weather > Galway > Past weeks

Flag for Ireland Past Weather in Galway, Ireland — Yesterday and Last 2 Weeks

Now
70 °F

Passing clouds.


Feels Like: 70 °F
Forecast: 49 / 68 °F
Wind: 9 mph from North

Location: Shannon Airport

Current Time: May 31, 2016 at 5:08:28 PM

Latest Report: May 31, 2016 at 4:30 PM


Visibility: N/A

Pressure: 30.30 "Hg

Humidity: 40%

Dew Point: 45 °F

Location of GalwayLocation

Past Weather in Galway — Graph

°F

Galway Temperature Yesterday

Maximum temperature yesterday: 72 °F (at 3:30 PM)
Minimum temperature yesterday: 50 °F (at 4:30 AM)
Average temperature yesterday: 61 °F

High & Low Weather Summary for the Past Weeks

 TemperatureHumidityPressure
High72 °F (May 30, 3:30 PM)100% (May 29, 4:30 AM)30.30 "Hg (May 29, 4:30 AM)
Low39 °F (May 23, 6:00 AM)37% (May 24, 5:00 PM)29.47 "Hg (May 21, 1:30 AM)
Average55 °F73%29.95 "Hg
* Reported May 16 4:00 PM — May 31 4:00 PM, Galway, Weather by CustomWeather, © 2016

Note: Actual official high and low records may vary slightly from our data, if they occured in-between our weather recording intervals... More about our weather records

Advertising

Galway Weather History for the Previous 24 Hours

Scroll right to see more
 ConditionsComfort  
Time TempWeatherWind HumidityBarometerVisibility
4:00 PM
Tue, May 31
70 °FPassing clouds.8 mph43%30.30 "HgN/A
3:30 PM70 °FPassing clouds.9 mph38%30.30 "HgN/A
3:00 PM70 °FPassing clouds.8 mph43%30.30 "HgN/A
2:30 PM68 °FPassing clouds.9 mph46%30.30 "HgN/A
2:00 PM68 °FPassing clouds.8 mph46%30.30 "HgN/A
1:30 PM68 °FPassing clouds.7 mph49%30.30 "HgN/A
1:00 PM68 °FPassing clouds.8 mph53%30.30 "HgN/A
12:30 PM66 °FPassing clouds.8 mph56%30.30 "HgN/A
12:00 PM64 °FPassing clouds.8 mph64%30.30 "HgN/A
11:30 AM64 °FPassing clouds.8 mph64%30.30 "HgN/A
11:00 AM63 °FPassing clouds.7 mph68%30.30 "HgN/A
10:30 AM61 °FPassing clouds.7 mph72%30.30 "HgN/A
10:00 AM59 °FPassing clouds.6 mph77%30.30 "HgN/A
9:30 AM57 °FPassing clouds.6 mph82%30.30 "HgN/A
9:00 AM55 °FPassing clouds.6 mph82%30.30 "HgN/A
8:30 AM55 °FPassing clouds.3 mph82%30.30 "HgN/A
8:00 AM54 °FPassing clouds.3 mph82%30.30 "HgN/A
7:30 AM50 °FPassing clouds.5 mph94%30.30 "HgN/A
7:00 AM48 °FPassing clouds.6 mph94%30.30 "HgN/A
6:30 AM48 °FPassing clouds.7 mph87%30.30 "HgN/A
6:00 AM46 °FPassing clouds.5 mph93%30.27 "HgN/A
5:30 AM46 °FClear.6 mph93%30.30 "Hg10 mi
5:00 AM48 °FClear.8 mph87%30.27 "Hg10 mi
4:30 AM48 °FClear.9 mph94%30.27 "Hg10 mi
4:00 AM48 °FClear.7 mph94%30.27 "Hg10 mi
3:30 AM50 °FClear.8 mph88%30.27 "Hg10 mi
3:00 AM50 °FClear.7 mph88%30.27 "Hg10 mi
2:30 AM50 °FClear.8 mph88%30.27 "Hg10 mi
2:00 AM52 °FClear.10 mph88%30.27 "Hg10 mi
1:30 AM52 °FClear.12 mph88%30.27 "Hg10 mi
1:00 AM54 °FClear.9 mph88%30.27 "Hg10 mi
12:30 AM54 °FClear.8 mph88%30.27 "Hg10 mi
12:00 AM55 °FClear.9 mph82%30.27 "Hg10 mi
11:30 PM
Mon, May 30
57 °FClear.7 mph72%30.24 "Hg10 mi
11:00 PM57 °FClear.7 mph72%30.24 "Hg10 mi
10:30 PM59 °FPassing clouds.7 mph68%30.24 "HgN/A
10:00 PM61 °FPassing clouds.8 mph63%30.24 "HgN/A
9:30 PM64 °FPassing clouds.8 mph52%30.21 "HgN/A
9:00 PM66 °FPassing clouds.9 mph56%30.21 "HgN/A
8:30 PM68 °FPassing clouds.9 mph53%30.21 "HgN/A
8:00 PM68 °FPassing clouds.10 mph53%30.21 "HgN/A
7:30 PM70 °FPassing clouds.9 mph50%30.21 "HgN/A
7:00 PM70 °FPassing clouds.12 mph50%30.18 "HgN/A
6:30 PM72 °FPassing clouds.12 mph44%30.18 "HgN/A
6:00 PM72 °FPassing clouds.10 mph41%30.18 "HgN/A
5:30 PM72 °FPassing clouds.9 mph38%30.18 "HgN/A
5:00 PM72 °FPassing clouds.10 mph41%30.18 "HgN/A
Weather by CustomWeather, © 2016

See weather overviewHow to use our weather pages